Location: Aalen
(48.8330°N, 10.1000°E)
Time: 12:56:10
(UTC+02:00)

ISS - Visible Passes

Search period start: 25 June 2021 00:00
Search period end: 05 July 2021 00:00
Orbit: 419 x 422 km, 51.6° (Epoch: 25 June)

Date Brightness Start Highest point End Pass type
(mag) Time Alt. Az. Time Alt. Az. Time Alt. Az.
29 Jun -1.9 04:16:47 10° S 04:19:20 20° SE 04:21:52 10° E visible
30 Jun -1.4 03:31:03 11° SSE 03:32:20 13° SE 03:34:02 10° ESE visible
01 Jul -3.1 04:18:30 11° SW 04:21:30 43° SSE 04:24:44 10° ENE visible
02 Jul -2.6 03:32:56 21° S 03:34:26 30° SE 03:37:25 10° E visible
03 Jul -2.1 02:47:20 20° SE 02:47:23 20° SE 02:49:58 10° E visible
03 Jul -3.8 04:20:30 10° WSW 04:23:53 87° SSE 04:27:16 10° ENE visible
04 Jul -1.2 02:01:42 12° ESE 02:01:42 12° ESE 02:02:11 10° ESE visible
04 Jul -3.7 03:34:39 21° SW 03:36:43 64° SSE 03:40:04 10° ENE visible
